When you browse on this site, cookies collect data to enhance your experience and personalize the content and advertising you see.
Visit our Privacy Policy to learn more. By continuing to use the site, you agree to this use of cookies and data.
  • In Sweden
  • List of Countries
  • For 7 days
  • Water Temperature
  • Weather Map
  • Weather Widgets
  • user-avatar
    Login

    Hourly Weather Puzakino

    Today, 21 September, Saturday

    Time Temperature Precipitation Wind Pressure Humidity
    00:00 +2°C° 0 mm 2 mps 751 mmHg 82%
    01:00 +2°C° 0 mm 2 mps 751 mmHg 86%
    02:00 +3°C° 0 mm 2 mps 751 mmHg 91%
    03:00 +3°C° 0 mm 2 mps 751 mmHg 90%
    04:00 +4°C° 0 mm 2 mps 750 mmHg 88%
    05:00 +4°C° 0 mm 2 mps 750 mmHg 87%
    06:00 +4°C° 0 mm 3 mps 749 mmHg 84%
    07:00 +5°C° 0 mm 4 mps 749 mmHg 81%
    08:00 +5°C° 0 mm 4 mps 748 mmHg 78%
    09:00 +5°C° 0.7 mm 4 mps 748 mmHg 83%
    10:00 +5°C° 0.7 mm 5 mps 747 mmHg 89%
    11:00 +5°C° 0.7 mm 5 mps 746 mmHg 95%
    12:00 +5°C° 0.7 mm 4 mps 746 mmHg 96%
    13:00 +6°C° 0.7 mm 4 mps 745 mmHg 96%
    14:00 +7°C° 0.7 mm 3 mps 745 mmHg 97%
    15:00 +8°C° 0.4 mm 3 mps 744 mmHg 97%
    16:00 +9°C° 0.4 mm 3 mps 744 mmHg 97%
    17:00 +9°C° 0.4 mm 3 mps 743 mmHg 98%
    18:00 +10°C° 0.3 mm 3 mps 743 mmHg 97%
    19:00 +10°C° 0.3 mm 4 mps 743 mmHg 97%
    20:00 +10°C° 0.3 mm 4 mps 743 mmHg 96%
    21:00 +10°C° 0.2 mm 4 mps 743 mmHg 95%
    22:00 +8°C° 0.2 mm 4 mps 743 mmHg 94%
    23:00 +8°C° 0.2 mm 4 mps 743 mmHg 93%

    Tomorrow, 22 September, Sunday

    Time Temperature Precipitation Wind Pressure Humidity
    00:00 +7°C° 0 mm 4 mps 743 mmHg 94%
    01:00 +7°C° 0 mm 4 mps 744 mmHg 94%
    02:00 +8°C° 0 mm 3 mps 744 mmHg 95%
    03:00 +7°C° 0 mm 3 mps 744 mmHg 94%
    04:00 +6°C° 0 mm 4 mps 744 mmHg 93%
    05:00 +6°C° 0 mm 4 mps 744 mmHg 91%
    06:00 +6°C° 0.1 mm 4 mps 745 mmHg 90%
    07:00 +7°C° 0.1 mm 3 mps 745 mmHg 88%
    08:00 +7°C° 0.1 mm 3 mps 746 mmHg 87%
    09:00 +6°C° 0.2 mm 4 mps 746 mmHg 84%
    10:00 +6°C° 0.2 mm 4 mps 746 mmHg 81%
    11:00 +7°C° 0.2 mm 4 mps 747 mmHg 77%
    12:00 +7°C° 0.2 mm 4 mps 747 mmHg 72%
    13:00 +7°C° 0.2 mm 4 mps 748 mmHg 67%
    14:00 +8°C° 0.2 mm 5 mps 748 mmHg 62%
    15:00 +7°C° 0.1 mm 4 mps 748 mmHg 65%
    16:00 +7°C° 0.1 mm 4 mps 749 mmHg 67%
    17:00 +7°C° 0.1 mm 3 mps 749 mmHg 70%
    18:00 +5°C° 0 mm 3 mps 750 mmHg 75%
    19:00 +3°C° 0 mm 3 mps 750 mmHg 79%
    20:00 +3°C° 0 mm 2 mps 751 mmHg 84%
    21:00 +3°C° 0 mm 2 mps 751 mmHg 87%
    22:00 +2°C° 0 mm 2 mps 752 mmHg 90%
    23:00 +1°C° 0 mm 2 mps 752 mmHg 93%

    Day after tomorrow, 23 September, Monday

    Time Temperature Precipitation Wind Pressure Humidity
    00:00 +2°C° 0 mm 1 mps 753 mmHg 94%
    01:00 +2°C° 0 mm 1 mps 753 mmHg 95%
    02:00 +1°C° 0 mm 1 mps 754 mmHg 96%
    03:00 +1°C° 0 mm 1 mps 754 mmHg 96%
    04:00 +1°C° 0 mm 1 mps 754 mmHg 96%
    05:00 +1°C° 0 mm 1 mps 754 mmHg 96%
    06:00 +2°C° 0 mm 1 mps 754 mmHg 91%
    07:00 +3°C° 0 mm 1 mps 754 mmHg 86%
    08:00 +3°C° 0 mm 2 mps 755 mmHg 81%
    09:00 +5°C° 0 mm 2 mps 755 mmHg 74%
    10:00 +6°C° 0 mm 2 mps 755 mmHg 68%
    11:00 +8°C° 0 mm 3 mps 755 mmHg 61%
    12:00 +8°C° 0 mm 3 mps 754 mmHg 60%
    13:00 +8°C° 0 mm 3 mps 754 mmHg 59%
    14:00 +8°C° 0 mm 3 mps 754 mmHg 58%
    15:00 +8°C° 0 mm 3 mps 754 mmHg 62%
    16:00 +7°C° 0 mm 2 mps 754 mmHg 65%
    17:00 +7°C° 0 mm 2 mps 753 mmHg 68%
    18:00 +6°C° 0 mm 2 mps 754 mmHg 73%
    19:00 +5°C° 0 mm 1 mps 754 mmHg 79%
    20:00 +4°C° 0 mm 1 mps 754 mmHg 84%
    21:00 +4°C° 0 mm 1 mps 754 mmHg 82%
    22:00 +4°C° 0 mm 1 mps 754 mmHg 81%
    23:00 +3°C° 0 mm 0 mps 754 mmHg 79%

    24 September, Tuesday

    Time Temperature Precipitation Wind Pressure Humidity
    00:00 +3°C° 0 mm 0 mps 754 mmHg 80%
    01:00 +4°C° 0 mm 1 mps 754 mmHg 81%
    02:00 +3°C° 0 mm 1 mps 754 mmHg 82%
    03:00 +3°C° 0 mm 1 mps 754 mmHg 84%
    04:00 +3°C° 0 mm 1 mps 754 mmHg 85%
    05:00 +2°C° 0 mm 1 mps 753 mmHg 87%
    06:00 +3°C° 0 mm 1 mps 753 mmHg 83%
    07:00 +4°C° 0 mm 1 mps 753 mmHg 79%
    08:00 +5°C° 0 mm 1 mps 753 mmHg 76%
    09:00 +7°C° 0 mm 1 mps 753 mmHg 70%
    10:00 +8°C° 0 mm 1 mps 753 mmHg 65%
    11:00 +9°C° 0 mm 1 mps 753 mmHg 59%
    12:00 +10°C° 0 mm 1 mps 753 mmHg 56%
    13:00 +10°C° 0 mm 1 mps 753 mmHg 54%
    14:00 +11°C° 0 mm 1 mps 752 mmHg 51%
    15:00 +10°C° 0 mm 1 mps 752 mmHg 56%
    16:00 +9°C° 0 mm 1 mps 752 mmHg 61%
    17:00 +8°C° 0 mm 0 mps 752 mmHg 66%
    18:00 +6°C° 0 mm 0 mps 752 mmHg 70%
    19:00 +5°C° 0 mm 0 mps 752 mmHg 74%
    20:00 +3°C° 0 mm 0 mps 752 mmHg 78%
    21:00 +3°C° 0 mm 0 mps 752 mmHg 79%
    22:00 +4°C° 0 mm 1 mps 752 mmHg 80%
    23:00 +3°C° 0 mm 1 mps 752 mmHg 82%

    25 September, Wednesday

    Time Temperature Precipitation Wind Pressure Humidity
    00:00 +3°C° 0 mm 1 mps 751 mmHg 83%
    01:00 +3°C° 0 mm 1 mps 751 mmHg 84%
    02:00 +3°C° 0 mm 1 mps 751 mmHg 85%
    03:00 +3°C° 0 mm 1 mps 751 mmHg 84%
    04:00 +3°C° 0 mm 1 mps 751 mmHg 83%
    05:00 +2°C° 0 mm 2 mps 751 mmHg 82%
    06:00 +3°C° 0 mm 2 mps 751 mmHg 79%
    07:00 +4°C° 0 mm 2 mps 751 mmHg 76%
    08:00 +5°C° 0 mm 2 mps 751 mmHg 72%
    09:00 +6°C° 0 mm 2 mps 751 mmHg 69%
    10:00 +7°C° 0 mm 2 mps 751 mmHg 65%
    11:00 +8°C° 0 mm 2 mps 751 mmHg 62%
    12:00 +8°C° 0.1 mm 2 mps 750 mmHg 67%
    13:00 +8°C° 0.1 mm 3 mps 750 mmHg 72%
    14:00 +7°C° 0.1 mm 3 mps 750 mmHg 77%
    15:00 +7°C° 0.5 mm 3 mps 749 mmHg 82%
    16:00 +6°C° 0.5 mm 2 mps 749 mmHg 87%
    17:00 +6°C° 0.5 mm 2 mps 749 mmHg 92%
    18:00 +6°C° 0.9 mm 2 mps 749 mmHg 93%
    19:00 +6°C° 0.9 mm 2 mps 749 mmHg 94%
    20:00 +5°C° 0.9 mm 3 mps 749 mmHg 95%
    21:00 +5°C° 0.8 mm 3 mps 749 mmHg 95%
    22:00 +5°C° 0.8 mm 3 mps 748 mmHg 95%
    23:00 +5°C° 0.8 mm 3 mps 748 mmHg 95%

    26 September, Thursday

    Time Temperature Precipitation Wind Pressure Humidity
    00:00 +5°C° 0.9 mm 3 mps 748 mmHg 95%
    01:00 +5°C° 0.9 mm 3 mps 748 mmHg 95%
    02:00 +4°C° 0.9 mm 3 mps 748 mmHg 95%
    03:00 +4°C° 1 mm 3 mps 748 mmHg 95%
    04:00 +4°C° 1 mm 3 mps 747 mmHg 95%
    05:00 +4°C° 1 mm 3 mps 747 mmHg 95%
    06:00 +4°C° 0.7 mm 3 mps 747 mmHg 95%
    07:00 +4°C° 0.7 mm 3 mps 747 mmHg 95%
    08:00 +4°C° 0.7 mm 3 mps 747 mmHg 95%
    09:00 +4°C° 0.3 mm 3 mps 747 mmHg 95%
    10:00 +4°C° 0.3 mm 3 mps 747 mmHg 94%
    11:00 +4°C° 0.3 mm 3 mps 748 mmHg 94%
    12:00 +4°C° 0.1 mm 3 mps 747 mmHg 93%
    13:00 +4°C° 0.1 mm 3 mps 747 mmHg 93%
    14:00 +5°C° 0.1 mm 3 mps 747 mmHg 93%
    15:00 +4°C° 0.2 mm 3 mps 747 mmHg 94%
    16:00 +4°C° 0.2 mm 3 mps 747 mmHg 94%
    17:00 +4°C° 0.2 mm 3 mps 747 mmHg 94%
    18:00 +4°C° 0.1 mm 3 mps 747 mmHg 95%
    19:00 +4°C° 0.1 mm 3 mps 747 mmHg 95%
    20:00 +4°C° 0.1 mm 3 mps 747 mmHg 95%
    21:00 +4°C° 0 mm 3 mps 747 mmHg 95%
    22:00 +4°C° 0 mm 3 mps 747 mmHg 95%
    23:00 +4°C° 0 mm 3 mps 747 mmHg 95%
    Show more